Time,TemperatureF,DewpointF,PressureIn,WindDirection,WindDirectionDegrees,WindSpeedMPH,WindSpeedGustMPH,Humidity,HourlyPrecipIn,Conditions,Clouds,dailyrainin,SoftwareType,DateUTC
2013-03-15 00:00:00,27.0,11.0,29.85,WNW,300,23.0,25.0,48,-99.99,,,-99.99,,2013-03-15 04:00:00,
2013-03-15 00:22:00,27.0,11.0,29.85,WNW,300,23.0,25.0,48,-99.99,,,-99.99,,2013-03-15 04:22:00,
2013-03-15 00:32:00,27.0,11.0,29.85,WNW,300,23.0,25.0,48,-99.99,,,-99.99,,2013-03-15 04:32:00,
2013-03-15 00:42:00,27.0,11.0,29.85,WNW,300,23.0,25.0,48,-99.99,,,-99.99,,2013-03-15 04:42:00,
2013-03-15 00:52:00,27.0,11.0,29.85,WNW,300,23.0,25.0,48,-99.99,,,-99.99,,2013-03-15 04:52:00,
2013-03-15 01:00:00,27.0,13.0,29.86,WNW,300,21.0,23.0,52,-99.99,,,-99.99,,2013-03-15 05:00:00,
2013-03-15 01:21:00,27.0,13.0,29.86,WNW,300,21.0,23.0,52,-99.99,,,-99.99,,2013-03-15 05:21:00,
2013-03-15 01:31:00,27.0,13.0,29.86,WNW,300,21.0,23.0,52,-99.99,,,-99.99,,2013-03-15 05:31:00,
2013-03-15 01:52:00,27.0,13.0,29.86,WNW,300,21.0,23.0,52,-99.99,,,-99.99,,2013-03-15 05:52:00,
2013-03-15 02:00:00,28.0,15.0,29.86,NW,310,21.0,23.0,58,-99.99,,,-99.99,,2013-03-15 06:00:00,
2013-03-15 02:21:00,28.0,15.0,29.86,NW,310,21.0,23.0,58,-99.99,,,-99.99,,2013-03-15 06:21:00,
2013-03-15 02:31:00,28.0,15.0,29.86,NW,310,21.0,23.0,58,-99.99,,,-99.99,,2013-03-15 06:31:00,
2013-03-15 02:41:00,28.0,15.0,29.86,NW,310,21.0,23.0,58,-99.99,,,-99.99,,2013-03-15 06:41:00,
2013-03-15 02:52:00,28.0,15.0,29.86,NW,310,21.0,23.0,58,-99.99,,,-99.99,,2013-03-15 06:52:00,
2013-03-15 03:00:00,27.0,16.0,29.85,NW,320,22.0,24.0,62,-99.99,,,-99.99,,2013-03-15 07:00:00,
2013-03-15 03:21:00,27.0,16.0,29.85,NW,320,22.0,24.0,62,-99.99,,,-99.99,,2013-03-15 07:21:00,
2013-03-15 03:31:00,27.0,16.0,29.85,NW,320,22.0,24.0,62,-99.99,,,-99.99,,2013-03-15 07:31:00,
2013-03-15 03:42:00,27.0,16.0,29.85,NW,320,22.0,24.0,62,-99.99,,,-99.99,,2013-03-15 07:42:00,
2013-03-15 03:51:00,27.0,16.0,29.85,NW,320,22.0,24.0,62,-99.99,,,-99.99,,2013-03-15 07:51:00,
2013-03-15 04:00:00,28.0,15.0,29.84,NW,310,32.0,37.0,56,-99.99,,,-99.99,,2013-03-15 08:00:00,
2013-03-15 04:22:00,28.0,15.0,29.84,NW,310,32.0,37.0,56,-99.99,,,-99.99,,2013-03-15 08:22:00,
2013-03-15 04:31:00,28.0,15.0,29.84,NW,310,32.0,37.0,56,-99.99,,,-99.99,,2013-03-15 08:31:00,
2013-03-15 04:41:00,28.0,15.0,29.84,NW,310,32.0,37.0,56,-99.99,,,-99.99,,2013-03-15 08:41:00,
2013-03-15 04:52:00,28.0,15.0,29.84,NW,310,32.0,37.0,56,-99.99,,,-99.99,,2013-03-15 08:52:00,
2013-03-15 05:00:00,27.0,13.0,29.85,NW,310,26.0,29.0,55,-99.99,,,-99.99,,2013-03-15 09:00:00,
2013-03-15 05:32:00,27.0,13.0,29.85,NW,310,26.0,29.0,55,-99.99,,,-99.99,,2013-03-15 09:32:00,
2013-03-15 05:42:00,27.0,13.0,29.85,NW,310,26.0,29.0,55,-99.99,,,-99.99,,2013-03-15 09:42:00,
2013-03-15 05:52:00,27.0,13.0,29.85,NW,310,26.0,29.0,55,-99.99,,,-99.99,,2013-03-15 09:52:00,
2013-03-15 06:00:00,27.0,13.0,29.87,WNW,300,31.0,37.0,53,-99.99,,,-99.99,,2013-03-15 10:00:00,
2013-03-15 06:22:00,27.0,13.0,29.87,WNW,300,31.0,37.0,53,-99.99,,,-99.99,,2013-03-15 10:22:00,
2013-03-15 06:32:00,27.0,13.0,29.87,WNW,300,31.0,37.0,53,-99.99,,,-99.99,,2013-03-15 10:32:00,
2013-03-15 06:41:00,27.0,13.0,29.87,WNW,300,31.0,37.0,53,-99.99,,,-99.99,,2013-03-15 10:41:00,
2013-03-15 06:51:00,27.0,13.0,29.87,WNW,300,31.0,37.0,53,-99.99,,,-99.99,,2013-03-15 10:51:00,
2013-03-15 07:00:00,27.0,11.0,29.88,NW,310,29.0,33.0,50,-99.99,,,-99.99,,2013-03-15 11:00:00,
2013-03-15 07:31:00,27.0,11.0,29.88,NW,310,29.0,33.0,50,-99.99,,,-99.99,,2013-03-15 11:31:00,
2013-03-15 07:41:00,27.0,11.0,29.88,NW,310,29.0,33.0,50,-99.99,,,-99.99,,2013-03-15 11:41:00,
2013-03-15 07:51:00,27.0,11.0,29.88,NW,310,29.0,33.0,50,-99.99,,,-99.99,,2013-03-15 11:51:00,
2013-03-15 08:00:00,27.0,11.0,29.90,WNW,300,22.0,26.0,51,-99.99,,,-99.99,,2013-03-15 12:00:00,
2013-03-15 08:21:00,27.0,11.0,29.90,WNW,300,22.0,26.0,51,-99.99,,,-99.99,,2013-03-15 12:21:00,
2013-03-15 08:31:00,27.0,11.0,29.90,WNW,300,22.0,26.0,51,-99.99,,,-99.99,,2013-03-15 12:31:00,
2013-03-15 08:41:00,27.0,11.0,29.90,WNW,300,22.0,26.0,51,-99.99,,,-99.99,,2013-03-15 12:41:00,
2013-03-15 08:51:00,27.0,11.0,29.90,WNW,300,22.0,26.0,51,-99.99,,,-99.99,,2013-03-15 12:51:00,
2013-03-15 09:00:00,27.0,9.0,29.90,WNW,300,22.0,25.0,45,-99.99,,,-99.99,,2013-03-15 13:00:00,
2013-03-15 09:21:00,27.0,9.0,29.90,WNW,300,22.0,25.0,45,-99.99,,,-99.99,,2013-03-15 13:21:00,
2013-03-15 09:31:00,27.0,9.0,29.90,WNW,300,22.0,25.0,45,-99.99,,,-99.99,,2013-03-15 13:31:00,
2013-03-15 09:41:00,27.0,9.0,29.90,WNW,300,22.0,25.0,45,-99.99,,,-99.99,,2013-03-15 13:41:00,
2013-03-15 09:52:00,27.0,9.0,29.90,WNW,300,22.0,25.0,45,-99.99,,,-99.99,,2013-03-15 13:52:00,
2013-03-15 10:00:00,28.0,9.0,29.89,WNW,290,20.0,22.0,44,-99.99,,,-99.99,,2013-03-15 14:00:00,
2013-03-15 10:21:00,28.0,9.0,29.89,WNW,290,20.0,22.0,44,-99.99,,,-99.99,,2013-03-15 14:21:00,
2013-03-15 10:32:00,28.0,9.0,29.89,WNW,290,20.0,22.0,44,-99.99,,,-99.99,,2013-03-15 14:32:00,
2013-03-15 10:41:00,28.0,9.0,29.89,WNW,290,20.0,22.0,44,-99.99,,,-99.99,,2013-03-15 14:41:00,
2013-03-15 10:51:00,28.0,9.0,29.89,WNW,290,20.0,22.0,44,-99.99,,,-99.99,,2013-03-15 14:51:00,
2013-03-15 11:00:00,29.0,7.0,29.88,West,280,16.0,17.0,37,-99.99,,,-99.99,,2013-03-15 15:00:00,
2013-03-15 11:21:00,29.0,7.0,29.88,West,280,16.0,17.0,37,-99.99,,,-99.99,,2013-03-15 15:21:00,
2013-03-15 11:32:00,29.0,7.0,29.88,West,280,16.0,17.0,37,-99.99,,,-99.99,,2013-03-15 15:32:00,
2013-03-15 11:42:00,29.0,7.0,29.88,West,280,16.0,17.0,37,-99.99,,,-99.99,,2013-03-15 15:42:00,
2013-03-15 11:52:00,29.0,7.0,29.88,West,280,16.0,17.0,37,-99.99,,,-99.99,,2013-03-15 15:52:00,
2013-03-15 12:00:00,30.0,6.0,29.86,West,270,17.0,20.0,35,-99.99,,,-99.99,,2013-03-15 16:00:00,
2013-03-15 12:22:00,30.0,6.0,29.86,West,270,17.0,20.0,35,-99.99,,,-99.99,,2013-03-15 16:22:00,
2013-03-15 12:32:00,30.0,6.0,29.86,West,270,17.0,20.0,35,-99.99,,,-99.99,,2013-03-15 16:32:00,
2013-03-15 12:41:00,30.0,6.0,29.86,West,270,17.0,20.0,35,-99.99,,,-99.99,,2013-03-15 16:41:00,
2013-03-15 12:52:00,30.0,6.0,29.86,West,270,17.0,20.0,35,-99.99,,,-99.99,,2013-03-15 16:52:00,
2013-03-15 13:00:00,32.0,11.0,29.83,WSW,240,20.0,21.0,40,-99.99,,,-99.99,,2013-03-15 17:00:00,
2013-03-15 13:21:00,32.0,11.0,29.83,WSW,240,20.0,21.0,40,-99.99,,,-99.99,,2013-03-15 17:21:00,
2013-03-15 13:32:00,32.0,11.0,29.83,WSW,240,20.0,21.0,40,-99.99,,,-99.99,,2013-03-15 17:32:00,
2013-03-15 13:41:00,32.0,11.0,29.83,WSW,240,20.0,21.0,40,-99.99,,,-99.99,,2013-03-15 17:41:00,
2013-03-15 13:52:00,32.0,11.0,29.83,WSW,240,20.0,21.0,40,-99.99,,,-99.99,,2013-03-15 17:52:00,
2013-03-15 14:00:00,32.0,15.0,29.79,WSW,240,22.0,23.0,47,-99.99,,,-99.99,,2013-03-15 18:00:00,
2013-03-15 14:21:00,32.0,15.0,29.79,WSW,240,22.0,23.0,47,-99.99,,,-99.99,,2013-03-15 18:21:00,
2013-03-15 14:31:00,32.0,15.0,29.79,WSW,240,22.0,23.0,47,-99.99,,,-99.99,,2013-03-15 18:31:00,
2013-03-15 14:41:00,32.0,15.0,29.79,WSW,240,22.0,23.0,47,-99.99,,,-99.99,,2013-03-15 18:41:00,
2013-03-15 14:51:00,32.0,15.0,29.79,WSW,240,22.0,23.0,47,-99.99,,,-99.99,,2013-03-15 18:51:00,
2013-03-15 15:00:00,34.0,21.0,29.75,WSW,240,23.0,24.0,58,-99.99,,,-99.99,,2013-03-15 19:00:00,
2013-03-15 15:21:00,34.0,21.0,29.75,WSW,240,23.0,24.0,58,-99.99,,,-99.99,,2013-03-15 19:21:00,
2013-03-15 15:31:00,34.0,21.0,29.75,WSW,240,23.0,24.0,58,-99.99,,,-99.99,,2013-03-15 19:31:00,
2013-03-15 15:41:00,34.0,21.0,29.75,WSW,240,23.0,24.0,58,-99.99,,,-99.99,,2013-03-15 19:41:00,
2013-03-15 15:52:00,34.0,21.0,29.75,WSW,240,23.0,24.0,58,-99.99,,,-99.99,,2013-03-15 19:52:00,
2013-03-15 16:00:00,35.0,22.0,29.72,SW,230,26.0,28.0,57,-99.99,,,-99.99,,2013-03-15 20:00:00,
2013-03-15 16:21:00,35.0,22.0,29.72,SW,230,26.0,28.0,57,-99.99,,,-99.99,,2013-03-15 20:21:00,
2013-03-15 16:31:00,35.0,22.0,29.72,SW,230,26.0,28.0,57,-99.99,,,-99.99,,2013-03-15 20:31:00,
2013-03-15 16:41:00,35.0,22.0,29.72,SW,230,26.0,28.0,57,-99.99,,,-99.99,,2013-03-15 20:41:00,
2013-03-15 16:51:00,35.0,22.0,29.72,SW,230,26.0,28.0,57,-99.99,,,-99.99,,2013-03-15 20:51:00,
2013-03-15 17:00:00,37.0,26.0,29.69,SW,230,28.0,30.0,65,-99.99,,,-99.99,,2013-03-15 21:00:00,
2013-03-15 17:21:00,37.0,26.0,29.69,SW,230,28.0,30.0,65,-99.99,,,-99.99,,2013-03-15 21:21:00,
2013-03-15 17:32:00,37.0,26.0,29.69,SW,230,28.0,30.0,65,-99.99,,,-99.99,,2013-03-15 21:32:00,
2013-03-15 17:42:00,37.0,26.0,29.69,SW,230,28.0,30.0,65,-99.99,,,-99.99,,2013-03-15 21:42:00,
2013-03-15 17:52:00,37.0,26.0,29.69,SW,230,28.0,30.0,65,-99.99,,,-99.99,,2013-03-15 21:52:00,
2013-03-15 18:00:00,38.0,23.0,29.70,SW,230,24.0,28.0,55,-99.99,,,-99.99,,2013-03-15 22:00:00,
2013-03-15 18:22:00,38.0,23.0,29.70,SW,230,24.0,28.0,55,-99.99,,,-99.99,,2013-03-15 22:22:00,
2013-03-15 18:32:00,38.0,23.0,29.70,SW,230,24.0,28.0,55,-99.99,,,-99.99,,2013-03-15 22:32:00,
2013-03-15 18:41:00,38.0,23.0,29.70,SW,230,24.0,28.0,55,-99.99,,,-99.99,,2013-03-15 22:41:00,
2013-03-15 18:52:00,38.0,23.0,29.70,SW,230,24.0,28.0,55,-99.99,,,-99.99,,2013-03-15 22:52:00,
2013-03-15 19:00:00,38.0,29.0,29.71,WSW,250,25.0,29.0,69,-99.99,,,-99.99,,2013-03-15 23:00:00,
2013-03-15 19:21:00,38.0,29.0,29.71,WSW,250,25.0,29.0,69,-99.99,,,-99.99,,2013-03-15 23:21:00,
2013-03-15 19:31:00,38.0,29.0,29.71,WSW,250,25.0,29.0,69,-99.99,,,-99.99,,2013-03-15 23:31:00,
2013-03-15 19:41:00,38.0,29.0,29.71,WSW,250,25.0,29.0,69,-99.99,,,-99.99,,2013-03-15 23:41:00,
2013-03-15 19:52:00,38.0,29.0,29.71,WSW,250,25.0,29.0,69,-99.99,,,-99.99,,2013-03-15 23:52:00,
2013-03-15 20:00:00,38.0,31.0,29.71,WSW,240,23.0,25.0,74,-99.99,,,-99.99,,2013-03-16 00:00:00,
2013-03-15 20:22:00,38.0,31.0,29.71,WSW,240,23.0,25.0,74,-99.99,,,-99.99,,2013-03-16 00:22:00,
2013-03-15 20:31:00,38.0,31.0,29.71,WSW,240,23.0,25.0,74,-99.99,,,-99.99,,2013-03-16 00:31:00,
2013-03-15 20:42:00,38.0,31.0,29.71,WSW,240,23.0,25.0,74,-99.99,,,-99.99,,2013-03-16 00:42:00,
2013-03-15 20:51:00,38.0,31.0,29.71,WSW,240,23.0,25.0,74,-99.99,,,-99.99,,2013-03-16 00:51:00,
2013-03-15 21:00:00,39.0,31.0,29.70,WSW,240,24.0,26.0,73,-99.99,,,-99.99,,2013-03-16 01:00:00,
2013-03-15 21:21:00,39.0,31.0,29.70,WSW,240,24.0,26.0,73,-99.99,,,-99.99,,2013-03-16 01:21:00,
2013-03-15 21:31:00,39.0,31.0,29.70,WSW,240,24.0,26.0,73,-99.99,,,-99.99,,2013-03-16 01:31:00,
2013-03-15 21:41:00,39.0,31.0,29.70,WSW,240,24.0,26.0,73,-99.99,,,-99.99,,2013-03-16 01:41:00,
2013-03-15 21:51:00,39.0,31.0,29.70,WSW,240,24.0,26.0,73,-99.99,,,-99.99,,2013-03-16 01:51:00,
2013-03-15 22:00:00,39.0,32.0,29.71,West,260,24.0,25.0,74,-99.99,,,-99.99,,2013-03-16 02:00:00,
2013-03-15 22:21:00,39.0,32.0,29.71,West,260,24.0,25.0,74,-99.99,,,-99.99,,2013-03-16 02:21:00,
2013-03-15 22:32:00,39.0,32.0,29.71,West,260,24.0,25.0,74,-99.99,,,-99.99,,2013-03-16 02:32:00,
2013-03-15 22:42:00,39.0,32.0,29.71,West,260,24.0,25.0,74,-99.99,,,-99.99,,2013-03-16 02:42:00,
2013-03-15 22:51:00,39.0,32.0,29.71,West,260,24.0,25.0,74,-99.99,,,-99.99,,2013-03-16 02:51:00,
2013-03-15 23:00:00,39.0,29.0,29.70,West,270,21.0,24.0,68,-99.99,,,-99.99,,2013-03-16 03:00:00,
2013-03-15 23:21:00,39.0,29.0,29.70,West,270,21.0,24.0,68,-99.99,,,-99.99,,2013-03-16 03:21:00,
2013-03-15 23:32:00,39.0,29.0,29.70,West,270,21.0,24.0,68,-99.99,,,-99.99,,2013-03-16 03:32:00,
2013-03-15 23:42:00,39.0,29.0,29.70,West,270,21.0,24.0,68,-99.99,,,-99.99,,2013-03-16 03:42:00,
2013-03-15 23:52:00,39.0,29.0,29.70,West,270,21.0,24.0,68,-99.99,,,-99.99,,2013-03-16 03:52:00,